Location: *
(51.0333°S, 178.4667°E)
Time: 01:55:38
(UTC+00:00)

STARLINK-48 - Pass Details

Date: 15 November 2019
Orbit: 506 x 508 km, 53.0° (Epoch: 15 December)

Event Time Altitude Azimuth Distance (km) Brightness Sun altitude
Rises 10:32:56 0° 250° (WSW) 2,643 7.7 -18.4°
Reaches altitude 10° 10:35:09 10° 254° (WSW) 1,753 6.6 -18.5°
Maximum altitude 10:39:04 60° 333° (NNW) 594 3.5 -18.7°
Enters shadow 10:39:40 52° 15° (NNE) 645 3.5 -18.8°
